When you browse on this site, cookies collect data to enhance your experience and personalize the content and advertising you see.
Visit our Privacy Policy to learn more. By continuing to use the site, you agree to this use of cookies and data.
  • In Schweiz
  • Länderverzeichnis
  • Für 7 Tage
  • Wassertemperatur
  • Wetterkarte
  • Widgets
  • user-avatar
    Anmelden

    Stündliche Wetter Tymoshyne

    Heute, 19 Februar, Mittwoch

    Zeit Temperatur Niederschläge Wind Luftdruck Luftfeuchtigkeit
    00:00 -1°C° 0 mm 4 m/S 747 mmHg 96%
    01:00 -1°C° 0.2 mm 4 m/S 747 mmHg 97%
    02:00 -1°C° 0.2 mm 4 m/S 747 mmHg 97%
    03:00 0°C° 0.2 mm 3 m/S 747 mmHg 97%
    04:00 0°C° 0.3 mm 3 m/S 746 mmHg 97%
    05:00 0°C° 0.3 mm 3 m/S 746 mmHg 97%
    06:00 0°C° 0.3 mm 3 m/S 746 mmHg 97%
    07:00 +1°C° 0 mm 2 m/S 746 mmHg 97%
    08:00 +1°C° 0 mm 2 m/S 746 mmHg 97%
    09:00 +1°C° 0 mm 2 m/S 746 mmHg 97%
    10:00 +1°C° 0 mm 2 m/S 746 mmHg 97%
    11:00 +2°C° 0 mm 2 m/S 746 mmHg 98%
    12:00 +2°C° 0 mm 2 m/S 746 mmHg 98%
    13:00 +2°C° 0 mm 2 m/S 746 mmHg 98%
    14:00 +2°C° 0 mm 2 m/S 746 mmHg 98%
    15:00 +2°C° 0 mm 2 m/S 747 mmHg 98%
    16:00 +2°C° 0 mm 2 m/S 747 mmHg 98%
    17:00 +1°C° 0 mm 2 m/S 747 mmHg 98%
    18:00 +1°C° 0 mm 2 m/S 747 mmHg 97%
    19:00 -1°C° 0 mm 2 m/S 747 mmHg 97%
    20:00 -1°C° 0 mm 2 m/S 747 mmHg 97%
    21:00 +1°C° 0 mm 1 m/S 747 mmHg 97%
    22:00 +1°C° 0 mm 1 m/S 747 mmHg 97%
    23:00 +1°C° 0 mm 1 m/S 748 mmHg 97%

    Morgen, 20 Februar, Donnerstag

    Zeit Temperatur Niederschläge Wind Luftdruck Luftfeuchtigkeit
    00:00 +1°C° 0 mm 1 m/S 748 mmHg 97%
    01:00 +1°C° 0 mm 1 m/S 748 mmHg 96%
    02:00 +1°C° 0 mm 1 m/S 748 mmHg 96%
    03:00 +1°C° 0 mm 1 m/S 748 mmHg 95%
    04:00 +1°C° 0 mm 1 m/S 748 mmHg 95%
    05:00 +1°C° 0 mm 1 m/S 748 mmHg 94%
    06:00 +1°C° 0 mm 1 m/S 748 mmHg 94%
    07:00 +1°C° 0 mm 1 m/S 749 mmHg 93%
    08:00 +1°C° 0 mm 1 m/S 749 mmHg 93%
    09:00 +1°C° 0 mm 1 m/S 749 mmHg 92%
    10:00 +2°C° 0 mm 1 m/S 749 mmHg 90%
    11:00 +2°C° 0 mm 1 m/S 749 mmHg 89%
    12:00 +2°C° 0 mm 1 m/S 750 mmHg 87%
    13:00 +2°C° 0 mm 1 m/S 749 mmHg 87%
    14:00 +3°C° 0 mm 1 m/S 749 mmHg 86%
    15:00 +3°C° 0 mm 1 m/S 749 mmHg 85%
    16:00 +2°C° 0 mm 1 m/S 749 mmHg 87%
    17:00 +2°C° 0 mm 1 m/S 749 mmHg 88%
    18:00 +1°C° 0 mm 2 m/S 749 mmHg 89%
    19:00 +1°C° 0 mm 2 m/S 750 mmHg 88%
    20:00 -1°C° 0 mm 2 m/S 750 mmHg 87%
    21:00 -1°C° 0 mm 2 m/S 750 mmHg 85%
    22:00 -1°C° 0 mm 2 m/S 750 mmHg 85%
    23:00 -1°C° 0 mm 2 m/S 750 mmHg 85%

    übermorgen, 21 Februar, Freitag

    Zeit Temperatur Niederschläge Wind Luftdruck Luftfeuchtigkeit
    00:00 -1°C° 0 mm 2 m/S 751 mmHg 84%
    01:00 -1°C° 0 mm 2 m/S 751 mmHg 85%
    02:00 -1°C° 0 mm 2 m/S 751 mmHg 85%
    03:00 -1°C° 0 mm 2 m/S 751 mmHg 85%
    04:00 -1°C° 0 mm 2 m/S 751 mmHg 85%
    05:00 -1°C° 0 mm 2 m/S 751 mmHg 85%
    06:00 -1°C° 0 mm 3 m/S 751 mmHg 85%
    07:00 -1°C° 0 mm 3 m/S 751 mmHg 84%
    08:00 -1°C° 0 mm 3 m/S 751 mmHg 83%
    09:00 -1°C° 0 mm 3 m/S 752 mmHg 82%
    16:00 0°C° 0 mm 3 m/S 751 mmHg 80%
    17:00 0°C° 0 mm 3 m/S 751 mmHg 82%
    18:00 -1°C° 0 mm 2 m/S 751 mmHg 85%
    19:00 -1°C° 0 mm 2 m/S 751 mmHg 85%
    20:00 -1°C° 0 mm 2 m/S 751 mmHg 86%
    21:00 -1°C° 0 mm 2 m/S 751 mmHg 87%
    22:00 -1°C° 0 mm 2 m/S 751 mmHg 89%
    23:00 -2°C° 0 mm 2 m/S 751 mmHg 91%

    22 Februar, Samstag

    Zeit Temperatur Niederschläge Wind Luftdruck Luftfeuchtigkeit
    00:00 -2°C° 0 mm 2 m/S 751 mmHg 93%
    01:00 -2°C° 0.2 mm 2 m/S 751 mmHg 94%
    02:00 -2°C° 0.2 mm 3 m/S 751 mmHg 95%
    03:00 -2°C° 0.2 mm 3 m/S 751 mmHg 96%
    04:00 -2°C° 0.1 mm 3 m/S 751 mmHg 96%
    05:00 -2°C° 0.1 mm 3 m/S 751 mmHg 96%
    06:00 -2°C° 0.1 mm 3 m/S 751 mmHg 96%
    07:00 -2°C° 0.1 mm 3 m/S 751 mmHg 94%
    08:00 -2°C° 0.1 mm 3 m/S 751 mmHg 93%
    09:00 -3°C° 0.1 mm 4 m/S 752 mmHg 91%
    10:00 -2°C° 0.2 mm 3 m/S 752 mmHg 92%
    11:00 -1°C° 0.2 mm 3 m/S 752 mmHg 93%
    12:00 -1°C° 0.2 mm 3 m/S 752 mmHg 94%
    13:00 -1°C° 0.1 mm 3 m/S 752 mmHg 93%
    14:00 -1°C° 0.1 mm 3 m/S 752 mmHg 93%
    15:00 0°C° 0.1 mm 3 m/S 752 mmHg 93%
    16:00 -1°C° 0.1 mm 2 m/S 752 mmHg 94%
    17:00 -1°C° 0.1 mm 2 m/S 752 mmHg 96%
    18:00 -1°C° 0.1 mm 2 m/S 752 mmHg 97%
    19:00 0°C° 0.1 mm 1 m/S 752 mmHg 97%
    20:00 0°C° 0.1 mm 1 m/S 752 mmHg 97%
    21:00 0°C° 0.1 mm 1 m/S 752 mmHg 98%
    22:00 0°C° 0 mm 1 m/S 752 mmHg 97%
    23:00 -1°C° 0 mm 1 m/S 752 mmHg 97%

    23 Februar, Sonntag

    Zeit Temperatur Niederschläge Wind Luftdruck Luftfeuchtigkeit
    00:00 -1°C° 0 mm 1 m/S 751 mmHg 96%
    01:00 -1°C° 0 mm 1 m/S 751 mmHg 96%
    02:00 -1°C° 0 mm 1 m/S 751 mmHg 96%
    03:00 -1°C° 0 mm 1 m/S 750 mmHg 95%
    04:00 -1°C° 0 mm 1 m/S 750 mmHg 95%
    05:00 -1°C° 0 mm 1 m/S 749 mmHg 95%
    06:00 -3°C° 0 mm 2 m/S 749 mmHg 95%
    07:00 -2°C° 0 mm 2 m/S 748 mmHg 93%
    08:00 -2°C° 0 mm 3 m/S 748 mmHg 91%
    09:00 -2°C° 0 mm 3 m/S 748 mmHg 89%
    10:00 -2°C° 0 mm 4 m/S 747 mmHg 88%
    11:00 -2°C° 0 mm 5 m/S 746 mmHg 86%
    12:00 -3°C° 0 mm 6 m/S 745 mmHg 84%
    13:00 -2°C° 0 mm 6 m/S 744 mmHg 82%
    14:00 -2°C° 0 mm 7 m/S 743 mmHg 81%
    15:00 -1°C° 0 mm 7 m/S 742 mmHg 80%
    16:00 -2°C° 0.2 mm 7 m/S 742 mmHg 85%
    17:00 -2°C° 0.2 mm 8 m/S 741 mmHg 90%
    18:00 -2°C° 0.2 mm 8 m/S 740 mmHg 95%
    19:00 -2°C° 0.8 mm 8 m/S 739 mmHg 95%
    20:00 -4°C° 0.8 mm 9 m/S 739 mmHg 96%
    21:00 -4°C° 0.8 mm 9 m/S 738 mmHg 96%
    22:00 -3°C° 0.6 mm 9 m/S 737 mmHg 96%
    23:00 -3°C° 0.6 mm 9 m/S 737 mmHg 96%

    24 Februar, Montag

    Zeit Temperatur Niederschläge Wind Luftdruck Luftfeuchtigkeit
    00:00 -2°C° 0.6 mm 8 m/S 737 mmHg 96%
    01:00 -2°C° 0.1 mm 8 m/S 736 mmHg 95%
    02:00 -2°C° 0.1 mm 7 m/S 736 mmHg 94%
    03:00 -2°C° 0.1 mm 6 m/S 736 mmHg 93%
    04:00 -3°C° 0 mm 6 m/S 737 mmHg 93%
    05:00 -2°C° 0 mm 5 m/S 737 mmHg 92%
    06:00 -4°C° 0 mm 5 m/S 737 mmHg 92%
    07:00 -2°C° 0 mm 5 m/S 737 mmHg 92%
    08:00 -2°C° 0 mm 5 m/S 737 mmHg 92%
    09:00 -2°C° 0 mm 4 m/S 737 mmHg 92%
    10:00 -1°C° 0 mm 4 m/S 737 mmHg 88%
    11:00 0°C° 0 mm 4 m/S 737 mmHg 84%
    12:00 0°C° 0 mm 4 m/S 736 mmHg 80%
    13:00 +1°C° 0 mm 5 m/S 736 mmHg 79%
    14:00 +1°C° 0 mm 5 m/S 735 mmHg 79%
    15:00 +1°C° 0 mm 5 m/S 734 mmHg 79%
    16:00 -1°C° 1.2 mm 6 m/S 732 mmHg 85%
    17:00 -2°C° 1.2 mm 7 m/S 731 mmHg 92%
    18:00 -3°C° 1.2 mm 7 m/S 730 mmHg 98%
    19:00 -3°C° 2 mm 7 m/S 729 mmHg 98%
    20:00 -2°C° 2 mm 6 m/S 729 mmHg 98%
    21:00 -2°C° 2 mm 6 m/S 728 mmHg 98%
    22:00 -1°C° 1.1 mm 5 m/S 727 mmHg 98%
    23:00 0°C° 1.1 mm 5 m/S 727 mmHg 98%
    Mehr zeigen